CYYZ

Toronto/Lester B. Pearson International Airport

Airport
ICAO code
CYYZ
IATA Code
YYZ
Summary
ICAO Region
NAM
ICAO Territory
Location

Mississauga, Ontario

Serving
Toronto
Elevation
569 ft
Coordinates
43° 40' 20" N , 79° 37' 24" W
KCC
Airport LOS
Parallel Runway Operation
Metar
Observation
CYYZ 071800Z 35015G22KT 15SM BKN032 10/02 A3012 RMK SC7 SLP203
Station
Toronto Pearson Int'L. Ont.
Date/Time
2022-10-07 18:00:00
Wind direction
350°
Wind speed
15 kts
Lowest cloud amount
broken clouds
Temperature
10°C
Dew point
2°C
Humidity
57%
Weather condition
n/a

International airport serving Toronto. The airport is located in Mississauga, 27 km northwest of Downtown Toronto.

Climatology

Humid continental climate (Köppen climate classification Dfa)

Runways

Designator Length Width Surface Rops
06R/24L 2743 61 ASP Yes/Yes
15R/33L 2770 61 ASP Yes/Yes
06L/24R 2956 61 ASP Yes/Yes
15L/33R 3368 61 ASP Yes/Yes
5/23 3389 61 PEM Yes/Yes

SKYbrary Partners:

Safety knowledge contributed by: